Weather History for PPIZ - February, 2012

Change the Weather History Date:

Wednesday, February 1, 2012

  Actual Average Record
Temperature  
Mean Temperature -50 °F -  
Max Temperature -45 °F -9 °F 29 °F (2007)
Min Temperature -55 °F -20 °F -55 °F (2012)
Degree Days  
Heating Degree Days 115    
Moisture  
Dew Point -    
Average Humidity    
Maximum Humidity    
Minimum Humidity    
Precipitation  
Precipitation 0.00 in - - ()
Sea Level Pressure  
Sea Level Pressure 29.77 in    
Wind  
Wind Speed 3 mph (SSE)    
Max Wind Speed 9 mph    
Max Gust Speed -    
Visibility 8 miles    
Events Fog    
Averages and records for this station are not official NWS values.
T = Trace of Precipitation, MM = Missing Value Source: NWS Daily Summary

Daily Weather History Graph

Daily Weather History Graph

Search for Another Location

Airport or City:

Trip Planner

Search our weather history database for the weather conditions in past years. The results will help you decide how hot, cold, wet, or windy it might be!

Date:

Astronomy

Feb. 01, 2012 Rise Set
Actual Time 11:33 AM AKST 4:38 PM AKST
Civil Twilight 10:10 AM AKST 6:02 PM AKST
Nautical Twilight 8:53 AM AKST 7:19 PM AKST
Astronomical Twilight 7:42 AM AKST 8:29 PM AKST
Moon No Moon Rise No Moon Set
Length of Visible Light 7h 52m
Length of Day
5h 04m
Waxing Gibbous, 66% of the Moon is Illuminated
Feb 1
Waxing Gibbous
Feb 7
Full
Feb 14
Last Quarter
Feb 21
New
Feb 29
First Quarter

Hourly Weather History & Observations

Time (AKST) Temp. Windchill Dew Point Humidity Pressure Visibility Wind Dir Wind Speed Gust Speed Precip Events Conditions
12:56 AM -45.9 °F - - N/A% 29.75 in 10.0 mi Calm Calm - N/A   Clear
1:56 AM -45.9 °F - - N/A% 29.76 in 10.0 mi Calm Calm - N/A   Clear
2:56 AM -44.9 °F - - N/A% 29.77 in 10.0 mi Calm Calm - N/A   Clear
3:56 AM -45.9 °F -66.1 °F - N/A% 29.77 in 10.0 mi South 5.8 mph - N/A   Clear
4:56 AM -45.9 °F -66.1 °F - N/A% 29.78 in 10.0 mi South 5.8 mph - N/A   Clear
5:56 AM -46.8 °F -67.2 °F - N/A% 29.78 in 10.0 mi South 5.8 mph - N/A   Clear
6:56 AM -46.8 °F -67.2 °F - N/A% 29.79 in 10.0 mi South 5.8 mph - N/A   Clear
7:56 AM -46.8 °F -67.2 °F - N/A% 29.80 in 10.0 mi South 5.8 mph - N/A   Clear
8:56 AM -46.8 °F -67.2 °F - N/A% 29.81 in 10.0 mi South 5.8 mph - N/A   Clear
9:56 AM -46.8 °F -67.2 °F - N/A% 29.81 in 10.0 mi South 5.8 mph - N/A   Clear
10:13 AM -47.2 °F - - N/A% 29.79 in 2.0 mi Calm Calm - N/A   Clear
10:22 AM -47.2 °F - - N/A% 29.79 in 10.0 mi Calm Calm - N/A   Clear
10:29 AM -47.2 °F -61.8 °F - N/A% 29.79 in 0.5 mi South 3.5 mph - N/A Fog Light Freezing Fog
10:35 AM -47.2 °F - - N/A% 29.79 in 1.0 mi Calm Calm - N/A   Clear
10:37 AM -47.2 °F -61.8 °F - N/A% 29.79 in 2.0 mi SSE 3.5 mph - N/A   Clear
10:44 AM -47.2 °F - - N/A% 29.79 in 10.0 mi Calm Calm - N/A   Clear
10:56 AM -46.8 °F - - N/A% 29.81 in 10.0 mi Calm Calm - N/A   Clear
11:56 AM -47.9 °F - - N/A% 29.81 in 10.0 mi Calm Calm - N/A   Clear
12:08 PM -47.2 °F - - N/A% 29.79 in 0.5 mi Calm Calm - N/A Fog Light Freezing Fog
12:19 PM -47.2 °F - - N/A% 29.79 in 3.0 mi Calm Calm - N/A   Clear
12:29 PM -47.2 °F -67.6 °F - N/A% 29.79 in 0.2 mi South 5.8 mph - N/A Fog Light Freezing Fog
12:38 PM -47.2 °F -67.6 °F - N/A% 29.79 in 1.0 mi SSE 5.8 mph - N/A   Clear
12:40 PM -47.2 °F -67.6 °F - N/A% 29.79 in 10.0 mi South 5.8 mph - N/A   Clear
12:56 PM -47.9 °F -65.8 °F - N/A% 29.81 in 10.0 mi South 4.6 mph - N/A   Clear
1:56 PM -47.9 °F - - N/A% 29.81 in 10.0 mi Calm Calm - N/A   Clear
2:24 PM -50.8 °F - - N/A% 29.79 in 10.0 mi Calm Calm - N/A   Partly Cloudy
2:56 PM -49.9 °F - - N/A% 29.80 in 10.0 mi Calm Calm - N/A   Clear
3:56 PM -51.9 °F - - N/A% 29.78 in 7.0 mi Calm Calm - N/A   Clear
4:20 PM -52.6 °F - - N/A% 29.76 in 7.0 mi Calm Calm - N/A   Partly Cloudy
4:56 PM -51.0 °F - - N/A% 29.77 in 10.0 mi Calm Calm - N/A   Clear
5:56 PM -51.9 °F - - N/A% 29.75 in 10.0 mi Calm Calm - N/A   Clear
6:56 PM -54.9 °F - - N/A% 29.75 in 9.0 mi Calm Calm - N/A   Clear
7:56 PM -55.8 °F - - N/A% 29.73 in 10.0 mi NNE 5.8 mph - N/A   Clear
8:56 PM -53.9 °F - - N/A% 29.72 in 10.0 mi NNE 5.8 mph - N/A   Clear
9:35 PM -54.4 °F - - N/A% 29.69 in 10.0 mi NNE 6.9 mph - N/A   Partly Cloudy
9:56 PM -53.0 °F - - N/A% 29.70 in 10.0 mi North 5.8 mph - N/A   Partly Cloudy
10:56 PM -53.0 °F - - N/A% 29.68 in 10.0 mi North 8.1 mph - N/A   Clear
11:05 PM -52.6 °F - - N/A% 29.66 in 10.0 mi NNE 9.2 mph - N/A   Partly Cloudy
11:56 PM -53.0 °F - - N/A% 29.68 in 10.0 mi NNE 8.1 mph - N/A   Clear